Terug naar catalogus

STARLINK-35974

ActiefCommunicatieVLEO
NORAD 66862·PAYLOAD·🇺🇸 United States

Gelanceerd Dec 2, 2025 vanaf Cape Canaveral Space Force Station

Loading…

Volgende Passages (komende 24 uur)

TLE

VersSource: CelesTrak SupGP

Epoch: Sep 15, 2026, 03:06 UTC

1 66862C 25281Q   26258.12965278  .00038104  00000+0  13799-2 0  2583
2 66862  43.0027 353.6140 0001500 263.1498 251.5766 15.27564767    10

Volg STARLINK-35974 in realtime met AllMySat

Download on the App Store